ECMWFNIL_sfc_temp_003.txt.gz
Temp
45 45 43 43 43 43 42 42 42 41 41 41 41 41 41 42 41 40 39 38 38 37 37 37 37 36 36 36 36 36 36 35 35 36 35 35 35 34 33 34 34 34
45 44 43 43 42 42 42 42 41 40 40 40 40 40 40 40 39 38 37 37 37 36 36 36 36 36 35 35 35 34 34 34 34 35 34 34 34 34 34 33 33 34
44 43 42 42 42 41 40 40 40 39 39 39 39 39 38 38 37 37 37 36 35 35 35 35 35 35 34 34 34 33 33 33 33 34 33 33 33 33 34 34 33 33
43 42 42 42 42 41 40 39 38 38 38 37 37 38 37 36 36 35 35 34 33 33 33 33 33 33 33 33 32 32 32 32 33 33 32 32 33 33 33 33 33 33
42 41 41 41 41 40 40 38 38 38 38 38 38 37 36 35 34 34 34 33 33 33 33 32 33 32 32 32 31 31 31 31 32 32 31 31 32 32 32 32 31 30
41 41 40 40 39 38 38 37 37 37 37 37 37 37 36 35 34 34 33 32 32 32 32 32 31 31 31 31 30 30 30 30 30 30 29 29 30 31 31 31 30 30
39 39 38 38 38 37 37 36 37 37 37 37 36 35 35 34 33 33 32 32 31 31 30 30 30 30 30 30 29 28 28 28 28 28 27 27 28 28 29 29 29 28
38 38 38 37 36 36 35 36 36 36 35 35 34 34 34 33 32 32 31 31 30 29 29 29 29 29 28 28 27 27 26 27 26 26 25 25 25 25 26 27 27 26
38 37 36 36 35 35 34 34 35 35 35 33 33 32 32 32 31 31 30 30 29 29 28 28 28 28 28 27 26 26 25 25 25 24 23 22 22 23 24 24 24 23
36 36 35 35 34 34 34 34 34 34 33 32 32 31 30 31 30 30 29 28 27 27 27 27 27 26 26 26 25 24 23 23 23 23 23 22 22 21 21 21 21 20
35 35 34 34 33 34 33 34 33 33 32 31 30 30 30 29 29 29 28 27 26 26 26 25 25 25 24 24 24 24 23 22 22 22 21 21 21 21 21 21 19 19
35 34 33 33 33 34 33 33 32 31 31 30 30 29 28 28 27 27 26 25 25 25 24 24 24 23 23 22 23 22 22 22 21 21 21 20 21 21 21 20 19 19
34 34 33 33 33 33 33 32 31 30 29 28 28 27 26 25 25 24 25 24 24 24 23 23 22 22 22 22 22 21 21 21 20 20 20 21 21 21 20 20 19 19
34 34 34 34 33 33 31 30 30 29 27 27 25 24 23 23 23 22 23 23 22 22 22 22 22 21 21 21 21 21 21 20 20 20 19 19 19 19 20 19 19 19
34 34 33 32 31 30 28 27 27 26 25 24 23 22 22 21 21 21 20 20 21 21 21 21 21 21 21 21 20 21 21 19 19 19 19 19 19 20 20 21 21 21
33 31 30 29 28 26 25 25 24 22 20 19 19 19 19 19 19 19 19 19 19 20 21 21 21 21 21 22 22 21 20 19 19 19 19 19 19 19 20 21 21 21
29 28 27 25 25 24 22 21 20 19 17 17 16 16 16 16 16 16 17 19 19 20 19 20 20 21 22 23 23 24 22 20 20 19 20 20 20 20 19 20 21 22
27 25 24 23 21 20 18 17 17 15 15 14 14 14 15 15 15 16 18 19 19 19 19 19 20 21 22 23 23 24 24 21 21 20 20 20 20 20 20 21 21 22
24 22 21 19 18 17 15 14 13 13 12 12 12 14 14 15 15 16 17 19 19 18 18 19 19 21 22 22 23 23 24 24 21 21 20 20 21 21 21 21 21 21
22 20 18 17 16 14 13 12 11 11 12 13 13 14 13 14 15 15 16 17 17 17 17 18 18 20 21 22 23 24 24 24 21 21 20 20 21 21 21 21 21 21
20 18 17 15 14 12 12 11 11 11 12 12 13 13 13 13 14 14 14 15 14 15 14 15 16 19 21 22 23 23 24 24 21 21 20 20 21 21 22 22 22 22
18 17 16 14 13 11 11 11 11 11 11 13 13 14 15 15 15 15 13 13 13 13 13 13 15 19 20 21 22 23 24 21 20 19 19 20 20 22 22 23 23 23
18 16 14 13 12 11 10 11 11 11 12 13 12 13 13 14 13 13 14 13 13 12 12 12 13 16 19 21 22 23 23 20 19 19 19 19 20 21 22 23 23 23
18 15 13 12 11 10 10 11 11 12 11 13 11 12 12 13 13 12 13 13 12 12 12 11 12 15 19 20 22 23 23 20 19 19 18 19 19 21 22 22 23 25
15 14 13 12 10 10 10 10 10 11 12 12 12 12 12 13 13 12 12 12 12 12 14 13 12 15 19 21 22 23 22 20 20 19 18 19 19 20 21 22 23 24
13 12 11 10 10 9 9 10 11 11 11 11 11 12 12 13 13 12 10 10 12 12 12 14 15 15 17 21 22 23 24 21 21 19 18 18 19 19 20 22 23 24

ECMWFNIL_sfc_temp_006.txt.gz
Temp
40 39 39 38 37 38 38 36 36 35 35 34 34 35 35 35 35 34 33 33 32 31 31 30 30 30 31 29 29 30 30 29 29 28 28 28 27 27 29 28 28 29
39 38 37 37 35 36 35 36 35 35 34 34 33 33 34 34 33 33 32 31 31 30 30 30 29 29 28 28 27 27 27 27 27 30 27 27 27 27 28 28 28 29
39 38 37 37 36 35 35 34 34 34 34 33 33 33 33 33 32 32 31 30 30 30 29 29 28 27 27 26 26 26 26 25 26 26 27 26 27 27 28 28 28 28
39 39 38 37 36 35 34 34 33 32 32 32 32 32 32 32 31 30 29 30 28 27 27 26 26 26 26 26 26 26 25 26 25 25 26 26 26 26 27 28 28 28
39 38 37 37 36 35 34 34 32 32 32 31 31 31 31 30 29 28 28 28 27 26 27 27 26 26 26 25 25 25 25 26 25 24 25 25 26 26 27 27 26 26
38 38 37 36 35 35 34 33 32 32 31 30 31 30 29 29 28 28 27 27 27 27 26 26 26 25 25 24 24 24 24 25 24 24 23 24 24 25 26 26 25 25
38 37 36 36 34 34 34 33 32 32 31 31 30 30 29 29 28 28 27 27 26 26 26 25 24 24 24 24 23 23 23 23 22 22 23 23 23 23 24 24 24 24
37 36 36 35 34 33 33 32 32 31 31 30 30 29 29 28 28 27 27 27 26 25 25 24 24 24 23 23 22 22 22 24 23 21 21 21 22 21 22 23 23 22
37 35 35 34 33 32 32 31 31 30 30 30 29 29 28 28 27 27 26 26 25 25 24 24 24 23 23 23 22 21 21 20 22 19 20 20 20 20 20 21 20 20
36 35 34 33 32 32 31 31 31 30 30 29 28 28 27 27 27 26 26 25 25 24 24 23 23 23 22 21 22 20 20 20 19 19 20 19 19 19 19 19 19 18
35 34 33 32 32 31 31 30 30 29 29 28 28 27 27 26 26 26 25 25 24 23 23 22 22 22 22 20 20 20 19 19 19 19 19 19 19 19 20 19 18 18
34 33 33 32 31 31 30 30 30 29 28 28 27 26 26 26 25 25 25 24 23 22 22 21 21 20 19 19 19 19 18 18 19 18 19 18 18 18 18 18 18 18
34 33 33 32 31 31 31 30 29 28 27 26 26 25 25 24 24 23 22 22 22 21 21 21 21 20 19 19 19 18 18 18 18 18 18 18 19 19 19 19 19 19
33 33 32 32 31 31 30 29 28 27 26 25 25 24 23 23 22 22 21 21 22 22 22 21 20 20 19 19 18 18 18 17 17 17 18 18 19 20 20 20 20 20
33 32 31 30 30 29 28 27 26 26 26 25 24 23 23 23 23 23 22 22 22 21 21 22 20 20 20 19 18 18 18 17 17 18 19 19 19 19 20 21 21 21
32 31 30 29 28 27 26 26 25 25 24 22 22 21 21 21 21 21 20 20 20 21 21 21 20 21 21 24 23 19 18 17 18 19 19 19 19 19 20 21 21 21
30 30 29 27 26 25 24 24 23 22 21 20 19 18 18 18 19 19 19 19 19 19 19 20 20 21 23 25 25 26 23 21 20 20 21 20 20 20 19 20 21 22
29 27 26 25 24 23 22 21 20 19 18 17 16 16 16 16 17 17 18 18 19 19 19 20 20 22 24 25 26 26 25 23 22 21 21 21 21 21 21 21 21 21
27 25 24 23 23 22 20 18 17 17 15 15 14 15 15 14 16 16 17 18 19 19 19 19 19 22 24 25 25 25 26 25 22 22 21 21 21 21 21 21 21 21
25 24 23 21 20 18 17 16 15 15 14 14 14 15 15 15 15 16 17 18 18 18 18 19 19 21 23 24 24 25 25 25 22 22 21 21 21 21 20 20 20 20
24 23 21 18 17 16 15 13 13 13 13 14 14 14 14 14 14 15 16 16 17 17 17 17 17 20 22 23 24 24 25 25 22 22 21 20 20 21 21 21 21 22
23 21 18 16 16 14 13 13 13 13 13 14 14 14 14 15 15 15 15 15 15 15 14 14 15 19 21 22 23 23 24 22 21 20 19 19 19 21 21 22 23 22
23 20 16 15 14 13 13 13 13 13 13 14 13 14 14 14 14 15 15 14 14 14 13 13 13 17 19 21 22 23 23 20 20 19 19 19 19 20 21 22 23 23
21 18 16 14 13 12 12 13 13 13 13 13 13 14 13 14 14 13 14 14 13 13 13 12 12 15 19 20 22 23 23 20 20 19 18 19 19 20 21 22 23 26
20 18 16 14 13 13 13 12 12 12 13 13 13 14 13 14 13 12 12 13 13 13 15 14 12 14 19 20 22 23 22 21 20 19 18 18 19 20 22 22 23 25
18 17 15 14 13 13 13 13 13 12 12 12 12 12 12 12 12 12 11 12 13 13 12 13 13 13 15 20 22 23 24 21 20 19 17 18 19 20 20 21 23 22

ECMWFNIL_sfc_temp_009.txt.gz
Temp
42 42 42 42 42 42 40 39 39 38 38 37 36 36 36 35 34 34 33 32 32 31 30 30 30 29 30 29 28 29 28 27 26 26 26 27 26 26 28 27 26 27
42 42 41 40 40 39 40 40 38 38 37 37 36 36 35 34 33 34 32 31 31 30 30 30 29 29 28 28 27 27 27 26 25 28 26 25 26 26 26 26 26 26
41 41 40 40 40 39 39 38 38 37 37 36 35 34 33 34 33 32 32 31 30 30 29 29 28 28 28 27 27 27 27 25 24 25 25 25 25 26 26 26 26 26
40 41 41 41 40 39 37 37 36 35 35 33 33 33 34 33 32 31 31 31 29 29 28 28 27 27 27 26 26 26 25 25 24 24 24 25 25 25 26 25 26 26
40 40 40 40 39 37 36 36 36 35 34 34 33 32 32 31 31 30 30 29 29 28 27 27 27 26 26 26 25 25 24 25 23 23 24 24 24 25 25 25 24 23
39 39 39 39 37 36 36 36 36 35 34 33 33 32 32 31 31 30 29 28 28 27 27 26 26 26 26 25 25 25 25 25 23 23 23 23 23 23 25 25 23 22
39 38 38 37 36 36 36 36 35 35 34 34 32 32 31 30 30 29 28 28 27 27 26 26 25 25 25 25 25 23 23 23 22 22 22 21 22 22 23 22 22 21
38 37 37 36 35 35 35 35 34 34 33 32 32 31 31 30 29 28 28 27 27 26 26 25 25 25 24 24 23 22 21 23 22 21 21 21 21 21 22 22 21 20
37 36 36 35 35 35 35 34 34 33 32 32 31 30 29 29 28 28 27 27 26 26 26 25 25 24 24 23 22 22 21 21 22 21 21 21 21 20 20 21 20 20
36 36 35 35 34 35 34 33 32 32 31 32 30 30 29 28 28 27 27 26 26 25 25 24 23 23 22 22 22 22 22 22 22 21 21 21 21 21 21 20 20 19
36 36 35 34 34 34 33 32 31 31 31 31 29 29 28 27 27 27 26 26 25 24 24 24 24 23 23 22 22 23 23 23 22 22 22 21 21 21 22 20 19 19
36 35 35 35 34 33 32 31 31 30 30 29 29 28 27 27 27 26 26 25 25 25 24 24 24 24 24 23 22 21 22 22 21 21 21 21 21 21 20 20 19 19
36 35 35 34 34 32 31 30 30 29 29 28 28 27 27 26 25 25 25 24 24 24 23 23 23 22 22 21 21 20 21 21 20 20 20 20 20 20 20 20 20 19
36 36 34 34 33 31 30 30 29 28 28 27 27 26 26 25 25 24 24 24 23 23 23 22 22 21 20 20 20 19 19 19 19 19 19 19 19 20 21 21 21 20
36 34 34 32 31 29 28 28 27 27 26 26 25 25 25 25 24 24 23 22 22 22 21 21 21 21 20 20 19 19 19 19 19 18 18 18 19 20 20 21 21 21
34 33 32 30 29 28 28 27 26 25 24 24 24 24 23 22 22 22 21 21 20 19 20 20 20 20 22 25 23 19 19 18 17 18 19 19 19 19 20 21 21 22
32 31 30 29 29 28 26 25 25 23 23 23 22 21 20 20 20 20 20 20 20 19 19 20 20 21 25 26 27 26 20 18 18 18 19 19 20 19 20 21 22 23
31 30 28 27 26 25 25 24 23 22 22 21 19 19 18 18 19 19 20 21 21 20 20 20 19 23 26 27 27 28 25 19 19 19 20 21 21 21 21 21 22 22
29 28 27 26 25 25 24 23 22 21 20 18 18 18 17 18 19 19 19 20 20 19 19 20 19 24 26 27 27 28 28 26 22 22 21 21 22 22 22 22 21 21
28 27 26 26 25 24 23 22 21 21 20 19 18 18 18 18 18 17 18 18 19 19 19 20 20 24 27 27 27 28 28 27 23 23 22 22 22 22 22 21 21 20
28 27 26 25 24 23 22 21 21 19 18 18 17 17 17 17 16 16 16 17 18 19 18 19 19 24 26 27 27 27 27 27 23 23 22 21 22 21 21 21 21 20
28 26 26 24 23 22 21 21 20 19 17 16 16 17 17 17 16 16 16 16 18 18 18 17 19 24 25 26 26 26 27 24 23 22 20 20 20 21 21 21 22 22
28 27 25 23 22 21 20 20 19 17 17 16 15 15 15 15 15 16 17 17 17 16 16 16 17 22 24 25 25 26 25 21 21 20 20 19 19 20 21 21 22 22
28 26 24 22 21 20 20 20 18 17 16 16 15 14 13 14 15 15 16 16 15 15 15 15 15 19 23 23 24 24 24 20 20 19 19 19 19 20 21 21 22 25
27 26 24 22 21 21 20 18 17 16 16 15 15 14 14 14 14 14 14 14 15 15 18 15 14 17 22 22 23 24 23 21 19 18 18 18 19 19 21 21 22 24
27 25 24 22 21 20 19 18 17 15 14 14 14 14 14 13 13 13 13 13 14 14 16 16 14 14 17 22 23 24 24 21 19 18 17 17 19 19 19 21 22 23

ECMWFNIL_sfc_temp_015.txt.gz
Temp
43 43 44 44 44 44 43 41 41 41 40 40 39 39 38 38 37 36 36 35 35 34 33 32 32 32 32 31 31 31 31 31 30 29 29 29 28 27 28 26 26 26
43 43 43 42 41 41 42 42 40 40 40 39 40 39 38 37 36 36 35 35 34 34 33 32 32 32 31 31 31 31 30 29 29 29 28 28 27 27 27 26 26 26
42 41 42 42 42 41 40 39 39 39 39 39 38 38 37 37 36 36 35 35 34 33 32 32 31 31 31 31 30 31 30 29 29 28 28 28 27 27 26 26 25 26
42 43 43 42 42 41 39 38 38 38 38 37 38 38 37 36 36 35 35 34 34 33 32 31 31 31 31 30 30 30 29 29 29 27 27 26 26 26 26 26 26 25
42 42 42 42 42 41 39 39 39 39 38 39 37 36 36 35 35 34 34 34 33 32 31 31 31 30 30 29 30 29 28 28 27 27 27 26 25 26 25 25 25 24
41 42 42 42 42 41 39 40 40 39 38 37 37 36 36 35 35 34 34 33 33 32 31 31 30 30 30 29 29 29 28 27 26 26 26 25 24 25 25 25 24 24
42 41 41 42 41 40 40 40 40 39 38 38 36 35 36 35 35 34 34 34 33 32 31 31 30 29 29 29 29 27 26 26 25 25 25 24 23 23 24 24 24 23
42 41 41 40 40 39 39 39 39 39 38 36 36 36 35 35 35 34 34 33 33 32 32 31 30 30 29 29 28 27 25 26 25 25 24 23 23 23 23 23 23 22
41 40 40 39 39 39 39 39 39 38 37 36 36 35 35 35 35 34 34 33 32 32 31 31 30 30 29 29 28 27 26 26 26 25 25 23 23 23 23 22 22 21
40 41 39 39 39 40 39 39 39 38 36 36 36 35 34 34 35 34 33 33 32 31 31 31 30 30 29 29 29 28 27 26 26 26 25 24 24 23 22 22 22 21
40 40 39 39 39 40 40 39 39 38 36 36 36 35 34 34 34 34 33 32 32 31 31 30 30 29 29 28 29 28 27 27 26 26 25 24 24 23 24 22 21 21
40 40 39 39 39 40 40 40 39 37 36 35 36 35 34 34 33 33 33 33 33 32 31 31 30 29 29 28 28 27 27 26 26 25 25 23 23 22 22 22 21 20
41 40 41 40 40 40 40 39 38 37 35 35 35 35 34 33 33 33 33 33 33 32 31 30 30 29 28 28 27 26 26 25 24 24 24 23 22 22 22 21 20 20
41 41 41 41 41 40 39 38 37 35 34 34 34 33 33 33 33 32 32 32 32 32 31 30 29 28 28 27 27 26 25 24 24 23 22 22 21 21 20 20 20 20
41 41 41 40 38 37 37 36 36 35 34 33 33 33 33 33 32 32 31 30 31 31 30 30 29 28 28 27 26 25 25 24 23 22 22 21 20 20 21 21 21 21
40 40 39 37 36 36 36 36 34 33 31 31 31 31 31 31 31 31 31 30 29 29 29 29 29 29 29 31 30 26 25 24 22 21 21 21 20 20 20 21 21 21
38 38 37 36 36 36 34 33 32 31 30 29 29 29 29 29 30 29 29 30 29 29 28 28 29 29 31 32 32 31 26 23 21 20 20 21 21 20 20 20 20 20
37 36 35 35 34 33 32 31 30 29 28 28 28 28 28 28 29 29 29 30 29 29 28 28 28 30 32 33 33 32 28 23 22 21 20 21 21 20 20 20 19 19
34 33 33 32 32 32 31 30 29 29 28 27 27 28 28 27 29 29 29 29 29 28 27 28 28 31 33 33 33 32 30 26 22 21 21 20 21 21 20 20 20 20
33 32 33 32 31 30 29 29 28 28 29 29 28 28 27 27 27 27 28 28 28 28 28 28 27 31 33 34 33 33 31 27 21 21 21 20 21 21 21 20 20 20
33 33 33 32 30 29 28 28 28 28 28 28 28 28 27 27 27 27 27 27 26 27 27 27 27 31 33 34 34 33 32 27 20 20 20 20 21 21 21 21 22 22
31 32 31 30 29 28 28 28 28 28 28 28 28 28 28 28 27 27 26 26 26 26 26 25 26 32 33 34 34 33 32 22 20 19 19 19 20 21 21 22 23 23
30 30 30 29 28 27 27 27 27 27 28 28 26 27 26 26 26 26 26 25 25 24 24 24 24 30 33 34 34 34 30 20 19 19 19 19 20 21 22 23 23 22
30 30 30 29 27 27 27 27 27 27 27 27 26 25 25 25 26 25 25 24 24 23 24 23 22 28 33 34 34 34 27 20 20 20 19 20 20 21 21 21 22 24
27 27 29 28 27 27 27 27 26 26 27 26 26 26 24 25 24 24 22 22 23 23 26 24 22 26 32 33 34 35 27 21 21 20 20 20 20 19 20 20 21 24
27 28 28 28 27 27 26 26 25 24 23 24 23 24 23 23 23 22 21 21 22 22 23 23 21 23 29 34 34 34 29 23 22 21 19 19 19 18 17 18 19 21

ECMWFNIL_sfc_temp_021.txt.gz
Temp
44 44 46 47 47 47 45 44 45 45 45 45 44 44 44 44 44 42 42 43 43 43 42 42 42 41 40 40 40 40 40 39 40 40 38 38 39 38 37 38 38 40
42 42 43 44 44 44 44 44 44 44 44 44 45 45 44 44 43 42 42 42 42 42 42 41 41 41 40 40 39 39 40 40 39 38 38 37 38 37 38 37 38 38
41 41 41 42 43 42 42 42 42 43 43 43 44 43 43 43 42 42 42 42 41 41 41 40 40 40 40 40 39 40 39 39 39 38 38 37 38 37 38 38 38 36
40 40 41 41 41 41 41 41 41 41 42 41 42 42 42 41 42 41 41 40 41 40 40 40 40 40 40 39 39 39 40 39 40 38 38 38 38 38 38 37 37 36
40 40 40 41 41 41 41 40 40 41 41 42 42 41 41 41 40 40 40 40 40 40 40 40 40 39 39 39 39 38 39 39 39 38 37 37 37 37 37 36 35 35
39 39 40 41 41 41 41 40 41 41 41 41 41 41 41 41 41 40 40 40 40 40 40 39 39 39 39 39 38 39 39 38 37 36 36 36 36 36 35 35 35 34
39 39 40 40 40 40 41 41 41 41 41 42 41 40 41 40 40 40 40 40 40 40 39 39 38 38 38 38 38 38 39 38 37 35 36 37 36 34 35 34 35 34
39 39 39 40 40 40 40 41 41 41 41 40 40 41 40 40 40 40 40 40 39 39 40 39 39 38 38 38 37 37 37 37 36 35 35 36 35 33 33 33 34 34
38 38 39 39 39 40 40 41 41 41 41 40 41 41 40 40 40 40 40 40 39 39 39 39 38 38 38 37 37 37 37 37 36 35 35 35 34 33 33 33 32 33
39 39 38 38 38 39 40 41 41 41 41 40 41 41 40 39 40 40 40 39 39 39 39 39 38 38 38 37 37 37 38 37 36 35 35 36 34 34 33 32 32 32
40 40 39 39 38 39 39 40 40 41 41 40 40 40 40 39 39 39 39 39 38 39 38 38 38 38 38 37 38 38 38 38 37 35 35 36 35 35 33 32 32 32
40 40 40 40 40 40 40 40 40 40 40 40 40 40 40 39 39 39 39 39 39 39 39 39 39 38 38 37 37 38 38 38 38 36 35 36 36 35 34 33 32 33
39 39 39 39 39 40 41 41 41 41 40 39 40 39 39 39 38 39 39 39 39 39 39 39 39 38 38 38 38 37 37 37 37 36 36 36 36 35 35 33 34 34
38 39 38 38 38 38 38 38 37 39 39 40 39 39 38 38 38 38 39 39 39 39 39 39 39 39 38 38 38 37 37 37 37 36 35 36 36 36 35 34 33 34
38 38 38 38 37 37 37 37 37 38 37 38 39 39 39 39 39 38 38 37 38 38 38 39 38 38 38 38 37 37 37 36 36 35 35 35 35 35 35 34 33 33
37 37 36 36 36 36 36 37 37 37 36 36 37 38 37 37 38 38 38 37 37 37 37 38 38 38 37 38 38 37 36 35 34 34 34 35 34 33 33 33 32 32
36 36 36 35 36 36 35 35 35 35 35 35 35 35 35 36 36 36 36 37 36 37 37 37 38 38 38 38 38 38 36 35 34 33 33 34 34 33 32 31 31 31
36 35 34 34 34 34 34 34 33 33 33 33 33 33 34 34 34 35 36 36 37 37 37 37 37 38 38 38 39 39 37 35 34 33 32 33 34 33 32 31 30 29
35 34 33 33 33 33 33 33 32 32 32 32 32 34 34 33 34 35 35 36 36 35 35 36 36 38 38 38 38 39 38 37 34 33 32 32 33 33 32 31 29 28
34 33 32 32 33 32 32 32 32 31 32 32 32 32 32 32 33 33 33 34 35 35 36 36 36 37 38 38 38 38 38 37 33 32 32 31 32 32 31 30 29 27
32 33 32 32 32 32 31 31 32 32 32 32 32 32 32 32 32 32 32 32 33 34 35 35 36 37 37 38 38 38 39 38 34 32 31 31 32 32 31 30 29 28
31 31 32 31 31 31 30 30 31 31 31 32 31 31 31 30 30 30 30 31 31 32 32 32 35 37 37 37 38 38 39 36 34 32 30 30 29 31 31 30 29 28
30 31 30 30 30 29 29 29 30 30 31 32 30 29 30 30 29 30 30 30 30 30 30 30 31 34 37 37 37 38 37 35 34 32 31 29 28 29 29 29 28 27
29 30 28 28 28 27 27 28 29 30 31 31 29 29 29 29 29 29 29 29 29 29 30 29 30 33 35 37 37 38 37 34 34 32 30 29 28 28 28 27 27 27
28 28 27 26 25 25 25 25 27 29 30 30 29 28 28 29 28 27 27 28 28 28 30 30 30 31 34 36 37 37 37 34 33 31 28 27 26 25 25 25 26 27
26 25 24 23 22 22 23 24 27 28 28 29 29 29 28 28 28 27 25 27 27 27 27 29 29 29 31 35 36 37 37 34 33 30 27 26 25 24 22 23 24 24

ECMWFNIL_sfc_temp_027.txt.gz
Temp
50 51 50 51 52 52 53 52 53 53 54 55 55 56 56 57 57 56 55 54 54 54 54 54 54 53 53 54 54 54 54 53 53 53 52 52 52 52 51 52 54 55
49 49 50 50 50 50 51 51 51 51 52 53 54 55 56 56 56 56 54 53 53 53 53 53 53 53 53 52 51 51 52 52 51 52 51 50 51 51 51 51 52 53
49 48 48 47 47 47 48 50 50 51 51 51 52 53 53 54 54 55 54 53 53 53 52 52 52 52 51 50 50 50 50 50 50 51 50 49 50 50 51 51 51 51
48 49 48 48 48 47 48 48 48 49 49 49 50 51 52 52 53 52 52 51 51 50 50 50 50 50 50 49 49 49 49 50 50 50 49 49 49 50 50 50 50 50
48 48 48 48 48 48 48 47 47 47 47 47 48 49 49 49 49 50 50 50 49 49 49 49 49 49 49 49 48 48 48 49 49 49 49 49 49 49 49 49 49 48
47 48 48 47 47 47 47 47 47 47 47 47 47 48 47 47 47 47 48 48 49 49 48 49 48 48 48 48 48 48 48 48 48 48 48 48 49 50 48 48 48 48
45 45 45 46 46 46 46 46 46 47 46 46 47 47 47 47 47 47 47 47 47 47 47 47 47 47 48 47 47 47 47 47 47 48 47 47 48 48 49 48 48 48
44 45 45 45 44 45 45 45 45 45 46 46 45 46 47 46 46 47 47 47 47 47 47 47 46 46 47 47 46 46 46 46 45 46 46 46 47 46 48 47 47 47
43 43 43 43 43 43 43 44 44 45 45 44 44 45 46 46 46 46 46 46 46 47 47 47 47 47 47 46 46 46 45 45 45 45 45 45 45 46 47 47 46 46
45 44 43 42 41 42 42 42 42 42 43 43 44 44 44 45 46 46 46 46 45 46 46 46 46 46 47 47 46 45 45 45 45 45 45 45 45 45 46 46 46 45
44 44 44 43 42 42 41 41 41 41 41 41 42 42 42 43 44 45 44 44 44 44 45 45 45 46 46 46 46 46 45 45 45 45 45 45 45 45 44 46 45 45
44 44 43 43 43 43 42 42 41 41 41 40 40 40 41 42 42 43 43 42 43 44 44 44 45 45 45 45 45 46 45 45 45 45 45 45 45 45 45 45 45 45
43 43 43 42 42 42 43 42 42 41 40 40 40 39 39 39 40 40 41 41 41 42 42 42 42 43 43 44 44 45 45 44 44 44 44 44 44 45 45 45 45 45
43 43 43 42 42 42 41 42 41 41 41 41 40 39 39 39 39 38 39 40 41 41 41 41 41 41 41 42 42 43 43 43 43 42 43 43 43 44 44 44 44 44
42 42 42 42 41 40 40 40 40 40 40 39 39 39 39 40 39 39 38 38 39 40 40 41 40 39 39 40 40 41 41 41 41 41 41 42 42 42 43 43 43 43
40 41 40 40 39 38 38 39 39 38 38 37 37 38 38 39 39 39 39 38 38 38 39 38 38 39 38 39 40 39 39 39 39 39 39 40 40 40 41 42 42 43
39 39 39 37 37 37 35 36 36 36 35 34 35 35 36 37 38 38 38 39 39 38 38 38 38 38 39 40 41 41 40 38 37 37 37 38 38 38 39 40 41 42
37 37 36 35 35 33 33 33 34 34 33 33 33 34 34 34 35 36 37 38 38 38 38 38 39 39 40 41 41 41 40 38 37 37 36 37 38 37 38 39 39 41
37 35 34 33 32 32 31 31 31 32 32 31 31 32 32 32 33 34 35 36 37 37 37 38 38 39 40 40 40 40 41 40 38 37 37 37 38 38 38 38 38 38
36 33 32 32 32 31 30 29 30 30 31 31 31 30 30 30 30 31 33 35 36 36 36 37 37 38 39 39 39 39 40 39 37 37 37 37 38 38 38 38 38 38
33 33 32 32 31 30 29 28 28 28 29 29 29 28 28 27 28 29 30 32 33 34 35 34 36 38 38 38 39 39 39 39 36 36 36 36 37 38 38 38 39 39
33 31 31 31 30 29 27 27 27 27 27 28 27 27 27 27 27 28 28 28 30 31 32 33 35 37 37 38 38 38 38 36 35 35 35 35 36 37 38 38 39 39
32 30 29 29 29 27 26 25 25 25 26 27 24 24 24 24 24 25 27 28 28 30 30 30 32 35 36 37 37 37 36 35 34 35 35 35 35 37 37 38 38 38
30 29 28 27 26 25 24 24 25 25 25 25 23 21 21 22 23 24 25 26 27 27 29 29 30 33 35 36 36 36 36 33 34 34 33 34 35 36 37 37 37 36
29 28 26 26 25 24 23 22 22 22 23 23 22 21 20 21 22 21 22 23 24 25 28 27 28 30 34 35 35 36 35 33 33 33 32 33 34 34 36 36 37 37
26 24 24 23 22 22 21 21 21 21 20 20 19 20 19 19 19 19 19 20 21 22 23 24 25 26 29 33 35 35 36 34 33 32 31 31 32 33 33 34 36 37

ECMWFNIL_sfc_temp_030.txt.gz
Temp
42 42 42 42 42 42 42 42 43 42 43 43 43 44 44 45 45 45 45 43 43 43 43 42 42 42 44 43 42 44 45 45 44 43 43 44 45 45 45 45 44 44
40 40 40 40 40 41 41 42 42 42 42 42 43 43 44 44 45 45 44 43 42 42 41 42 41 41 41 40 39 39 41 41 41 42 42 41 43 43 44 44 43 44
40 38 39 38 39 38 39 41 40 41 40 41 42 42 43 43 44 44 44 43 43 42 41 41 40 40 39 37 37 38 39 38 39 39 39 39 40 41 43 42 43 43
40 40 40 39 39 38 39 38 38 39 39 39 39 41 41 42 41 41 41 41 40 39 39 37 37 37 36 36 36 37 37 38 38 38 39 39 39 39 40 40 42 43
38 39 40 40 39 38 38 37 37 37 36 37 37 38 38 38 38 37 38 38 38 37 38 38 36 37 37 37 36 37 37 38 37 37 38 38 38 39 39 39 40 41
36 37 38 38 38 37 38 37 37 37 37 37 37 37 36 36 36 37 37 37 37 37 37 36 36 36 36 36 36 37 37 38 38 36 37 38 38 38 39 39 39 40
36 35 36 36 36 36 37 37 37 37 37 36 36 37 37 37 37 37 36 36 36 37 37 37 36 36 36 35 35 36 37 36 36 36 37 37 37 38 38 38 39 40
36 36 37 37 36 36 37 36 35 35 36 36 36 36 36 36 36 36 37 37 36 36 35 35 36 36 36 36 36 36 36 37 37 36 36 36 36 36 37 38 38 38
34 34 36 36 36 36 35 35 34 34 34 33 34 34 36 36 36 36 36 36 36 36 36 36 36 37 37 36 36 36 36 36 37 36 36 36 36 37 37 37 37 38
32 33 33 33 34 34 34 34 34 33 33 33 34 34 35 36 36 35 35 35 35 36 36 36 36 36 37 37 37 35 35 36 36 37 37 36 36 37 37 37 38 38
32 32 31 31 31 31 31 32 32 32 31 30 30 31 32 33 34 33 33 33 34 35 35 35 36 36 37 36 37 36 36 36 36 36 37 37 37 37 38 37 38 38
31 31 32 31 32 31 30 31 32 31 30 30 30 31 30 30 31 32 32 32 32 33 34 35 36 36 36 36 36 37 36 37 36 36 36 37 37 37 37 37 38 38
30 31 32 32 31 31 30 31 31 31 31 31 30 28 29 30 30 30 31 31 32 32 33 33 34 34 35 36 36 36 37 37 37 37 38 38 38 38 38 38 38 38
31 31 32 32 33 31 31 30 29 29 30 31 30 29 29 29 30 30 31 30 31 31 32 32 32 33 33 34 35 35 35 36 36 36 37 37 38 38 39 39 39 39
30 30 30 30 31 31 31 31 30 30 30 30 29 29 31 30 30 30 30 30 31 31 31 32 32 33 34 33 33 33 34 34 35 35 36 36 37 37 38 38 39 39
30 30 30 30 30 30 30 29 30 30 29 29 29 29 29 29 29 29 29 29 29 30 31 32 32 33 35 38 39 36 33 34 34 34 35 35 35 35 36 37 37 38
30 30 30 30 30 30 28 29 29 28 28 28 28 28 28 28 28 28 28 29 29 29 29 31 32 33 37 39 40 41 38 34 33 33 33 34 34 34 35 35 36 37
29 29 29 29 29 28 28 28 28 27 27 26 27 27 28 28 27 27 28 28 28 28 28 30 31 35 38 39 39 40 39 36 33 33 33 33 33 34 35 35 35 36
29 29 28 28 28 28 28 28 27 26 26 25 25 26 27 27 27 27 27 27 27 26 27 28 29 34 36 37 38 38 39 38 34 33 32 32 33 33 33 34 35 35
29 28 28 28 28 28 27 27 26 26 26 25 25 25 25 25 26 25 25 26 26 26 26 27 28 32 34 36 36 37 38 38 33 32 32 32 32 33 33 33 34 34
28 27 27 27 27 27 26 26 26 25 25 24 24 24 24 24 24 24 24 24 24 24 24 25 26 31 32 34 35 36 37 37 33 32 32 31 32 32 33 33 33 34
27 26 26 25 26 25 25 24 24 24 24 24 23 23 23 23 23 23 22 22 22 22 22 22 24 29 31 32 33 34 36 33 32 31 30 30 30 31 32 33 33 34
25 24 23 23 24 23 22 22 22 22 23 23 21 21 21 21 21 21 21 21 20 21 20 20 22 26 29 30 31 33 32 30 30 30 30 29 30 31 32 32 33 33
22 21 21 21 20 19 19 20 20 20 20 21 19 19 19 19 19 19 20 20 19 19 19 19 20 24 27 28 29 31 30 27 28 28 28 28 29 30 31 31 32 34
19 18 18 18 17 16 16 15 15 16 17 18 17 17 17 18 18 18 17 18 18 18 21 20 19 21 25 27 28 28 27 25 26 25 25 26 28 28 30 30 31 33
15 15 15 13 11 11 11 12 13 13 13 14 14 15 15 15 16 16 15 15 16 16 16 17 17 17 20 25 26 27 28 24 23 23 22 24 26 27 28 29 30 31

ECMWFNIL_sfc_temp_033.txt.gz
Temp
38 38 38 38 38 38 38 37 38 38 38 39 38 39 39 40 41 41 41 41 41 41 41 40 40 40 41 39 39 40 40 41 40 40 39 39 38 39 41 41 41 42
37 37 37 37 38 38 37 36 36 36 36 36 37 37 39 39 40 40 39 39 40 40 40 40 40 39 39 39 38 38 38 38 38 40 39 37 38 37 38 39 40 41
35 35 35 35 36 36 36 37 36 36 36 37 37 37 38 38 37 37 38 38 38 38 39 39 38 38 37 36 36 37 37 37 37 38 37 37 38 37 37 37 37 38
34 35 34 33 34 34 35 34 35 35 35 36 37 37 38 38 38 37 37 37 36 35 35 36 36 36 36 36 36 36 36 36 36 36 36 37 36 36 37 37 37 37
32 34 33 33 33 32 32 33 33 33 33 34 34 34 35 36 36 36 37 37 37 37 37 36 35 35 35 35 35 36 36 36 36 35 35 36 37 36 37 36 36 36
32 32 33 34 35 34 36 35 34 34 34 33 33 32 31 32 33 35 36 36 37 37 37 37 37 37 36 35 35 34 34 35 36 35 35 35 36 36 37 37 36 36
35 35 36 35 36 34 34 34 34 35 35 35 36 35 35 34 33 32 32 33 34 35 36 36 36 37 37 37 36 35 35 34 34 34 34 35 35 35 35 34 35 35
34 34 34 34 32 33 30 31 31 31 31 33 34 35 35 35 35 35 34 33 32 33 35 36 36 36 36 36 36 36 36 37 36 35 34 34 34 34 35 35 35 35
30 30 31 31 31 33 31 32 31 31 31 30 31 32 33 34 34 33 33 34 34 34 34 34 35 35 35 35 35 35 35 36 36 35 34 34 34 34 34 35 34 34
28 28 29 28 28 29 29 30 30 30 30 30 30 29 30 32 32 32 31 31 32 33 33 33 34 34 34 35 35 35 35 35 34 35 35 35 35 35 34 34 34 34
27 27 28 28 28 29 29 28 28 29 28 28 29 29 29 29 30 30 30 30 30 30 31 32 33 33 33 34 34 34 34 34 34 34 33 34 35 35 36 35 34 34
27 27 29 29 29 29 29 29 29 29 29 29 28 29 29 28 28 29 30 30 30 29 29 30 31 32 32 32 33 34 34 34 34 33 33 33 33 34 34 34 35 35
30 30 30 30 30 30 30 29 29 29 29 29 29 28 28 28 28 28 28 28 29 29 28 29 29 30 31 31 32 32 32 33 34 33 33 33 33 33 33 33 34 34
30 30 30 31 31 30 30 29 29 29 29 29 28 27 28 27 28 28 29 28 28 28 29 28 28 29 29 29 30 30 31 31 32 32 33 33 33 33 33 33 34 34
30 30 31 31 31 31 31 31 31 30 30 28 28 28 29 28 28 27 27 28 28 28 28 28 29 29 30 30 29 30 30 30 31 31 31 31 32 32 33 33 34 34
29 30 30 30 30 30 30 30 30 30 30 29 29 29 28 28 27 28 27 27 27 28 28 28 29 30 31 34 35 32 31 32 32 31 30 30 31 31 32 32 33 34
28 29 29 29 29 29 28 28 28 28 28 28 28 28 28 28 28 27 27 28 27 27 27 28 28 29 32 34 34 35 33 32 31 31 31 31 31 31 31 31 32 33
28 28 27 27 27 26 26 26 26 26 26 26 26 26 27 27 26 27 27 27 27 27 26 27 27 30 33 33 34 34 34 32 31 31 31 31 31 31 31 31 31 32
26 25 25 25 25 25 25 24 24 24 24 24 24 25 26 25 25 26 25 26 26 25 25 26 26 30 32 32 32 33 33 32 29 29 30 30 31 31 31 31 31 31
24 23 23 23 23 22 22 22 21 21 22 23 23 23 23 23 23 23 24 24 24 24 24 25 25 28 30 31 31 32 32 32 28 28 28 29 30 30 31 31 31 31
22 21 20 20 20 19 19 19 19 19 20 20 20 20 20 20 20 20 21 21 21 22 22 22 23 28 29 30 30 31 31 31 26 26 26 26 28 29 30 30 31 31
19 17 16 16 16 16 15 16 16 16 16 16 16 16 17 17 18 18 17 18 19 19 19 19 21 26 27 28 28 29 30 26 24 24 23 24 24 26 28 29 30 31
16 14 12 12 12 12 12 12 12 11 11 13 11 12 12 13 13 14 15 15 15 16 16 16 17 21 25 26 27 28 27 23 23 22 22 22 22 24 25 26 28 29
12 11 10 9 9 8 8 9 9 9 8 10 9 8 9 9 10 10 11 12 12 12 14 13 14 19 23 24 25 25 24 21 20 20 19 19 20 22 23 24 26 28
9 9 8 7 7 7 6 6 6 6 7 8 7 7 7 8 8 7 8 9 10 11 14 12 11 14 19 20 22 22 21 18 18 18 18 18 19 19 21 22 23 25
8 7 6 6 5 5 5 5 6 5 5 5 5 5 5 5 6 6 5 6 7 8 8 9 9 10 13 19 20 21 22 18 18 17 16 17 18 19 18 19 20 21

ECMWFNIL_sfc_temp_036.txt.gz
Temp
35 35 35 35 34 35 34 34 34 34 35 36 36 36 36 37 37 37 37 38 38 37 38 37 37 37 38 37 37 37 36 36 36 36 35 35 35 34 37 37 37 38
33 33 34 33 33 33 33 33 33 33 34 34 35 36 38 38 38 37 37 37 37 37 37 37 36 36 36 36 35 34 35 35 35 37 36 35 35 34 34 34 35 36
31 31 31 30 31 30 30 30 30 31 31 32 32 33 35 36 36 37 37 37 37 37 37 37 36 36 35 34 34 34 34 34 34 35 34 34 35 35 35 34 34 34
30 30 30 30 30 30 30 29 29 30 29 31 30 31 30 33 33 34 34 34 34 34 35 35 35 36 36 36 35 34 33 33 33 33 33 34 34 35 35 35 35 35
33 34 34 34 34 31 30 32 31 30 30 30 30 30 31 30 30 30 30 31 31 32 32 33 34 35 35 35 35 35 36 35 34 34 33 33 34 34 35 35 34 34
34 34 34 33 33 32 31 31 31 31 32 33 32 32 32 31 31 31 31 30 31 31 31 31 31 32 32 32 33 34 35 35 35 35 33 33 33 34 34 35 34 34
30 29 31 29 29 30 30 30 31 30 31 31 31 33 32 31 31 32 31 31 31 32 32 33 33 33 33 31 30 30 32 33 34 34 34 34 34 34 35 34 34 35
28 28 29 28 27 28 28 29 30 30 29 29 30 31 31 31 31 32 32 31 30 31 31 31 32 32 32 31 30 30 30 32 33 32 32 33 34 34 34 35 35 33
26 26 26 26 27 29 28 29 29 29 29 29 29 30 30 30 30 30 31 31 31 32 31 31 31 31 31 30 30 30 30 31 31 31 31 32 32 33 33 33 33 33
25 25 26 26 27 27 27 28 28 28 28 28 28 28 28 29 28 29 29 29 30 30 31 31 31 31 31 30 30 30 30 30 31 30 31 31 32 32 32 32 32 32
25 25 25 26 27 27 27 27 27 28 28 28 28 29 29 28 28 27 27 28 28 29 29 29 30 30 30 30 31 30 29 30 30 30 30 30 30 31 33 32 32 31
26 26 27 27 27 27 27 27 28 27 27 27 26 27 27 27 27 28 28 28 29 28 28 28 28 28 29 29 29 30 30 30 30 29 30 30 30 31 31 32 32 32
26 27 27 27 28 28 28 28 28 28 27 27 27 26 26 26 27 27 27 27 27 28 28 28 28 28 28 28 28 28 28 28 29 29 29 30 30 31 31 31 32 32
27 27 27 28 28 28 28 28 28 28 28 28 27 27 27 27 27 27 28 28 27 27 28 27 27 27 27 27 27 27 27 27 28 28 28 29 30 30 31 31 31 31
26 27 27 26 26 27 27 27 27 27 27 27 26 26 27 27 27 27 26 27 27 27 27 28 27 28 28 28 27 27 28 27 27 28 28 28 28 29 30 31 31 31
25 25 25 25 25 25 25 25 25 25 25 24 24 24 24 25 25 25 25 25 25 26 27 27 27 28 29 31 32 30 29 28 28 27 27 27 27 28 28 29 30 31
24 24 24 23 24 23 22 22 22 22 21 21 21 21 21 22 23 23 23 24 24 24 24 25 26 27 30 31 32 32 30 28 27 27 27 27 26 26 26 27 29 30
23 22 21 21 20 20 19 19 18 18 17 18 18 18 19 20 20 21 21 22 22 22 22 23 23 26 29 29 30 30 30 28 27 26 26 26 26 26 26 26 26 27
20 18 17 17 17 16 16 16 15 15 15 15 15 17 17 17 17 17 17 18 18 18 18 19 20 23 25 27 27 28 29 28 25 25 25 25 25 25 25 25 25 25
17 15 15 14 14 13 13 12 12 12 13 14 14 14 13 13 13 13 13 14 15 15 15 16 16 19 23 24 25 26 26 26 23 23 23 23 23 23 24 23 23 23
14 13 12 12 11 11 10 10 10 10 11 11 10 10 9 9 9 9 10 11 11 11 11 11 12 18 20 21 22 23 24 24 21 21 21 21 23 23 23 23 23 23
11 10 9 9 9 8 8 8 8 8 8 8 8 8 8 8 8 8 8 8 8 8 8 8 10 16 18 19 21 22 23 19 18 17 17 17 18 20 21 21 22 22
10 8 7 7 7 6 5 6 6 6 6 7 6 6 6 6 6 6 7 6 6 6 6 6 7 12 17 18 19 20 19 15 15 15 16 15 16 17 18 19 20 20
8 5 5 5 4 4 4 5 6 6 5 6 4 4 4 4 4 4 5 5 5 5 5 5 6 11 16 17 18 19 18 15 15 14 14 15 15 17 18 18 20 22
5 5 5 4 3 4 4 3 3 3 4 5 4 3 3 3 4 3 3 4 4 5 8 7 6 8 14 16 17 18 17 15 15 14 13 13 14 14 16 16 17 19
4 3 3 3 3 3 3 3 3 3 3 3 3 2 2 2 2 2 1 2 4 4 4 5 5 6 9 15 17 18 19 15 14 13 12 12 13 14 13 14 16 16

ECMWFNIL_sfc_temp_042.txt.gz
Temp
33 33 32 32 32 32 32 33 32 32 33 33 32 32 32 33 33 32 32 33 33 33 33 32 33 32 32 32 31 31 32 31 31 31 30 30 30 30 32 32 33 33
31 32 32 32 31 31 30 29 30 30 31 30 30 30 31 31 31 30 31 32 32 32 31 31 31 31 31 31 30 30 31 30 30 31 29 29 29 29 30 30 31 32
30 30 30 30 30 29 29 29 29 29 28 28 28 29 30 29 29 28 28 29 30 31 30 30 30 30 29 29 29 29 29 30 30 31 30 29 29 28 29 29 29 29
29 30 30 29 29 28 28 29 29 28 28 28 28 28 29 29 27 27 27 28 27 28 28 27 27 28 27 28 27 28 28 28 28 28 28 29 29 29 29 29 29 29
28 28 29 29 28 28 28 29 28 28 27 27 27 27 28 28 27 27 27 27 27 27 28 27 26 26 26 26 26 26 26 27 26 26 26 27 28 29 30 30 29 29
28 27 27 27 27 28 28 27 26 26 26 26 27 27 26 26 26 26 27 26 26 27 26 26 26 26 26 26 26 26 26 26 26 25 25 26 26 27 29 29 28 29
26 27 26 27 26 27 27 26 26 27 26 25 25 26 25 26 25 25 25 25 25 25 25 25 26 26 26 26 26 25 25 25 26 26 25 25 26 26 26 26 27 27
25 25 26 26 26 26 26 25 25 25 24 25 24 25 24 24 24 24 24 24 24 24 24 24 25 25 25 25 25 25 25 26 26 25 25 25 25 25 25 26 26 25
25 25 26 25 25 25 24 24 24 24 23 24 23 23 23 23 23 23 23 23 23 23 23 24 24 24 24 24 24 24 24 25 25 25 24 24 24 24 25 25 25 25
25 24 24 24 24 24 23 23 23 23 23 23 23 23 22 23 22 22 22 22 22 22 22 22 23 23 23 24 24 24 24 24 24 24 24 24 24 24 25 25 25 24
24 23 23 23 23 23 22 22 22 22 22 22 22 21 21 21 21 21 21 21 21 21 21 21 22 22 22 22 23 23 23 23 24 24 24 24 24 25 26 25 25 24
23 22 23 22 22 22 22 22 22 21 21 21 21 20 20 20 20 20 20 20 20 20 21 21 21 21 21 21 21 22 22 23 23 23 23 23 24 24 24 25 24 24
22 22 22 22 22 22 21 21 20 20 19 19 19 18 18 18 18 18 19 19 19 19 19 19 19 19 19 20 20 21 21 21 21 21 22 22 23 23 23 24 24 24
22 22 22 21 21 21 20 19 19 18 17 17 16 16 16 16 16 16 17 17 17 17 17 17 17 17 18 19 19 19 20 20 20 20 20 20 20 21 21 22 22 23
22 22 21 20 20 19 18 17 17 16 15 14 14 14 15 15 15 15 14 14 14 15 15 16 15 16 17 17 18 19 20 19 19 19 19 19 19 20 21 21 21 22
20 19 19 19 18 17 15 14 14 13 12 12 12 11 12 13 12 12 13 12 11 12 13 13 14 14 16 20 22 20 19 19 19 19 19 19 19 19 19 20 21 22
17 16 16 15 15 13 10 10 11 9 7 9 8 8 9 10 10 10 10 11 10 10 10 11 12 13 17 20 21 22 20 19 19 19 19 19 18 18 17 19 20 21
15 14 13 11 11 9 9 7 6 5 5 6 6 7 8 6 8 9 9 9 10 9 9 10 10 14 17 19 20 21 22 20 19 18 18 18 18 18 18 18 18 18
13 10 9 8 7 7 5 4 3 5 3 4 4 4 5 6 8 7 7 8 8 8 8 8 8 13 16 18 20 21 22 21 19 18 17 17 17 17 16 16 15 15
11 7 8 7 6 5 5 3 3 2 3 3 3 4 5 5 4 5 6 6 7 6 6 7 7 11 16 18 19 20 21 21 19 18 16 15 15 15 15 15 15 15
10 8 6 6 5 4 2 2 3 2 3 3 2 4 4 3 3 3 3 4 4 5 5 5 6 13 16 18 18 20 21 21 17 16 15 14 15 15 16 15 16 16
7 5 5 4 5 2 1 3 3 1 2 3 2 2 1 2 3 2 2 2 3 3 3 3 5 13 15 16 18 19 21 17 15 14 14 14 14 15 16 16 17 16
8 5 4 3 3 2 -1 0 3 1 0 -0 -0 1 2 1 1 1 2 2 2 2 2 2 3 9 14 16 18 19 18 15 15 14 13 13 14 15 16 16 17 17
7 3 3 1 -0 -1 -1 2 1 -0 -1 -1 0 0 0 -1 0 0 1 1 1 0 1 1 2 8 14 16 17 18 18 15 15 13 13 13 14 15 16 16 17 19
4 3 3 1 -1 0 -2 -1 -2 -2 -1 -2 -2 -2 -1 -1 -0 -1 -1 -0 -0 1 5 5 3 5 11 14 16 18 17 16 15 14 13 13 14 14 15 16 16 18
2 2 2 -0 0 -1 -3 -3 -2 -3 -3 -3 -3 -2 -2 -2 -2 -2 -2 -1 -0 0 1 2 2 2 6 14 16 18 20 17 16 14 12 13 14 14 14 15 16 16

ECMWFNIL_sfc_temp_045.txt.gz
Temp
36 36 36 36 35 35 35 34 35 34 34 34 34 34 34 34 34 34 34 34 34 34 34 34 35 34 34 35 34 34 35 34 34 35 33 34 34 33 33 34 34 34
35 35 35 35 34 34 34 34 33 33 33 33 33 33 33 33 32 32 32 32 33 32 33 33 33 33 33 33 33 33 33 33 32 34 32 33 33 33 33 33 33 34
34 34 34 33 33 32 32 32 32 32 32 32 32 32 32 32 31 31 31 31 31 31 31 31 31 31 31 31 31 32 31 31 31 32 32 32 32 32 33 33 33 33
32 32 32 32 32 32 32 32 31 31 32 31 31 31 31 30 31 30 30 30 30 30 30 30 30 30 30 30 30 30 30 30 31 31 31 31 31 32 31 32 32 32
32 32 32 32 31 32 32 31 30 30 30 30 30 30 30 30 29 29 29 29 29 29 29 29 30 29 30 29 30 30 30 30 30 30 30 30 31 31 31 31 31 30
31 31 31 31 31 31 31 30 29 29 29 29 29 29 29 29 29 28 28 28 28 28 28 28 28 29 29 29 29 29 29 29 30 29 29 29 29 30 30 30 30 29
30 30 30 30 30 30 30 29 29 29 29 29 29 28 28 28 28 28 28 27 27 27 27 27 27 27 28 28 28 28 28 28 28 28 27 28 29 28 30 29 29 28
29 29 30 30 30 29 29 29 28 28 28 28 27 27 27 27 27 27 27 27 26 26 26 26 26 26 27 27 26 26 26 27 27 27 27 27 27 27 28 28 28 28
29 29 29 29 29 28 28 27 27 27 27 26 26 26 27 26 26 26 25 25 25 25 25 25 25 25 25 25 25 25 25 25 26 25 25 25 25 26 26 27 27 27
29 28 28 28 27 27 26 26 26 26 26 25 25 25 24 25 25 24 24 24 23 24 24 24 23 23 23 24 24 24 24 24 24 24 24 24 24 24 25 25 25 25
28 28 27 26 26 26 25 25 24 24 24 23 23 23 23 23 23 23 22 22 22 22 22 22 22 22 22 22 23 23 23 23 23 23 23 24 24 24 24 24 23 23
27 27 26 25 25 24 24 23 23 22 22 22 21 21 21 21 21 21 21 20 21 21 21 20 21 21 21 21 22 22 22 22 23 23 23 23 23 23 23 23 23 23
26 26 25 25 24 23 23 22 21 20 19 19 19 19 18 18 18 18 19 18 19 19 19 19 19 19 20 20 20 21 21 21 21 22 22 22 22 23 23 23 23 23
25 25 24 24 23 22 21 20 19 18 17 18 17 17 16 16 16 16 17 17 17 17 17 17 17 18 18 19 19 20 21 21 21 21 21 21 22 22 22 22 23 23
25 24 23 22 21 19 18 18 17 16 16 16 15 15 15 15 15 15 15 15 15 15 15 16 16 16 17 18 19 21 21 20 20 20 20 20 21 21 22 22 22 22
23 22 21 20 19 17 16 16 15 14 14 14 13 13 13 14 13 14 14 13 13 14 14 14 15 15 16 19 21 21 21 20 20 20 20 20 20 20 20 21 21 22
20 19 18 17 16 15 13 13 13 12 11 11 11 11 11 11 12 12 12 12 12 12 12 13 13 14 16 20 21 22 21 21 20 20 20 20 20 19 19 19 20 20
18 17 15 14 13 12 11 10 10 9 9 9 9 9 10 10 10 11 11 11 11 11 11 11 12 13 17 19 20 21 22 21 20 19 19 20 20 19 18 18 17 17
16 13 12 11 11 10 9 8 7 8 7 7 7 8 9 9 10 9 9 10 10 9 9 10 10 12 16 18 20 21 22 22 20 20 19 18 18 17 17 17 16 16
13 11 11 10 9 8 8 7 7 7 7 7 7 8 8 7 7 7 8 8 8 8 8 9 9 11 16 18 20 20 21 22 20 19 18 17 17 16 16 16 17 16
13 11 10 9 8 7 7 6 6 6 7 7 6 7 6 6 5 5 5 5 6 6 6 6 8 12 16 17 19 20 21 21 19 17 17 16 17 17 17 17 17 17
10 9 8 8 8 6 5 7 6 6 5 6 5 5 5 6 5 5 4 4 5 4 4 5 7 12 14 17 19 20 21 18 17 16 16 16 16 17 17 18 18 18
11 9 7 6 6 5 4 4 6 4 4 4 3 4 5 3 3 3 4 3 3 3 3 4 4 8 14 16 18 19 19 16 16 16 16 15 16 17 18 18 19 19
10 7 6 5 4 3 3 6 5 4 3 3 3 2 2 2 2 1 2 2 2 1 2 2 4 8 13 16 17 18 19 16 16 15 15 15 16 17 18 19 19 20
8 7 6 4 4 5 2 3 3 2 2 1 1 0 1 1 1 0 -0 1 1 1 4 5 3 5 11 14 16 18 18 17 17 16 15 15 16 16 18 18 18 20
6 5 4 3 4 2 1 1 2 -1 -0 0 -0 -0 -1 -1 -0 -1 -2 -1 1 1 1 3 3 3 6 13 16 18 20 18 17 16 15 15 16 16 16 17 18 18

ECMWFNIL_sfc_temp_048.txt.gz
Temp
46 46 45 45 45 45 44 43 43 42 43 43 42 42 41 41 40 40 40 40 40 40 39 40 40 39 39 40 40 41 41 40 40 40 39 39 39 38 37 38 38 39
44 44 44 44 43 43 43 43 42 42 41 41 41 40 40 39 38 38 38 38 38 38 38 38 38 38 38 39 38 39 39 39 38 39 37 37 38 38 38 37 38 38
43 42 42 42 41 40 40 41 41 41 40 39 39 40 38 38 37 38 38 37 38 38 37 37 37 37 37 37 37 38 38 37 37 38 37 37 37 37 37 37 38 37
42 42 41 41 40 40 40 40 40 40 40 39 38 37 37 36 37 37 37 36 37 37 37 36 36 37 36 36 36 38 37 37 37 36 37 38 37 37 36 37 36 36
41 40 41 41 40 40 40 39 39 39 38 38 37 38 38 37 37 37 37 36 36 36 36 36 36 36 35 36 36 37 37 37 37 36 36 36 37 36 35 36 35 35
40 41 40 40 40 39 39 38 38 38 37 37 37 37 37 36 37 36 36 36 36 36 35 36 35 35 35 35 36 37 36 36 36 35 35 35 36 36 35 35 35 34
39 39 38 39 39 39 38 38 37 37 37 37 37 36 36 36 35 35 35 35 34 35 34 34 34 34 35 35 35 34 35 34 33 34 33 34 35 34 35 34 34 33
39 39 39 39 38 38 38 38 37 37 36 36 36 35 35 34 34 34 34 34 33 33 33 34 33 33 33 33 33 32 33 32 32 32 32 32 33 32 33 32 32 32
39 39 38 38 38 38 37 37 36 35 35 35 35 34 34 34 33 33 32 33 32 32 32 32 32 32 32 31 31 31 31 31 31 31 31 30 30 31 31 31 31 31
39 38 38 39 38 37 35 35 35 34 34 33 33 34 33 32 32 31 31 31 31 31 31 31 31 31 30 31 30 30 30 30 30 30 30 30 29 29 29 29 29 29
38 38 38 37 37 36 34 33 33 33 33 32 32 32 31 31 31 31 30 31 29 29 30 30 29 29 29 29 30 30 29 29 29 29 29 29 29 29 28 28 28 28
38 38 37 36 35 34 33 33 32 32 31 31 30 30 30 29 29 29 29 28 29 28 28 28 28 28 28 28 28 28 28 28 28 28 28 28 28 28 28 28 28 28
38 38 36 35 34 34 33 32 31 29 29 28 28 27 28 28 27 27 28 27 27 27 27 27 26 27 27 27 27 27 27 27 27 27 27 27 27 27 28 28 28 27
38 37 36 35 34 32 31 30 29 28 27 27 26 26 26 25 25 25 26 26 25 25 26 26 26 26 26 26 26 26 26 26 25 25 26 26 27 27 27 27 27 27
36 35 34 32 31 30 28 27 27 26 25 25 25 24 24 24 23 24 23 24 24 24 24 25 24 24 25 24 24 24 25 24 24 24 24 25 25 26 27 27 27 27
35 33 32 31 29 28 27 26 25 24 23 23 22 22 22 22 22 22 22 22 22 23 23 23 23 24 20 19 22 23 23 24 24 24 24 24 24 24 25 26 26 27
33 32 31 29 28 27 24 23 23 21 20 20 20 19 19 19 20 21 21 22 21 21 21 22 22 22 19 20 21 22 23 23 22 22 23 23 23 23 23 24 25 25
32 30 28 27 24 22 21 20 20 18 18 18 18 17 18 18 18 20 20 20 20 20 20 21 21 19 19 20 21 22 23 23 22 22 21 22 23 23 23 23 22 23
31 27 25 22 22 21 19 17 16 16 16 16 16 17 17 17 19 18 18 19 18 18 18 19 20 18 18 19 20 22 23 23 22 22 21 21 23 22 21 21 21 21
28 25 23 21 20 18 18 16 15 16 17 17 16 15 16 16 16 15 16 16 17 16 17 18 18 17 17 19 20 21 22 23 22 22 21 21 21 21 21 20 20 20
26 24 23 20 18 17 16 16 15 16 15 15 15 16 15 14 15 14 13 12 13 13 15 14 16 15 17 18 19 21 22 22 21 20 20 19 20 21 21 21 21 21
24 23 21 19 18 16 15 16 15 14 14 15 14 15 14 14 14 13 11 11 11 11 11 13 15 15 16 17 19 20 21 20 19 18 18 18 18 20 21 21 22 22
25 22 20 18 17 15 14 15 15 14 14 14 12 14 14 13 12 11 11 11 9 9 9 11 11 13 15 17 18 20 20 19 18 18 18 18 18 20 21 21 22 22
24 21 18 17 16 14 14 16 16 16 13 13 13 12 12 11 11 10 9 9 8 7 8 8 9 12 15 16 17 19 19 18 18 18 17 18 18 20 21 22 23 23
22 20 18 16 15 15 14 14 13 13 13 11 11 12 10 11 10 10 9 9 8 7 8 8 8 10 13 15 17 18 19 19 18 18 17 18 18 19 21 21 23 23
20 17 17 15 14 14 13 13 13 11 10 10 10 11 11 10 9 9 6 7 8 7 6 8 9 9 11 15 17 18 20 19 19 18 17 17 19 19 19 20 22 23